DW4332 Weather Reports


time (UTC)temp
C
wind
direction
speed
KPH
gust
KPH
rain 1hr
cm
rain 24hr
cm
rain mn
cm
humidity
%
barometer
mb
20260505151503 27 232 3.2 0.0 0.00 0.00 0.00 44 1010.0
20260505124533 21 156 1.6 0.0 0.00 0.00 0.00 60 1010.4
20260505123015 21 187 3.2 0.0 0.00 0.00 0.00 60 1010.4
20260505121512 20 232 1.6 0.0 0.00 0.00 0.00 61 1010.4
20260505120006 19 190 1.6 0.0 0.00 0.00 0.00 62 1010.3
20260505114502 18 165 1.6 0.0 0.00 0.00 0.00 57 1010.4
20260505113114 17 200 1.6 0.0 0.00 0.00 0.00 51 1010.4
20260505111554 16 216 1.6 0.0 0.00 0.00 0.00 47 1010.2
20260505101536 15 186 1.6 0.0 0.00 0.00 0.00 22 1009.7
20260505100032 14 220 1.6 0.0 0.00 0.00 0.00 4 1009.4
20260505094530 13 192 1.6 0.0 0.00 0.00 0.00 100 1009.4
20260505093023 13 230 0.0 0.0 0.00 0.00 0.00 100 1009.6
20260505091519 13 197 0.0 0.0 0.00 0.00 0.00 100 1009.5
20260505090014 13 140 1.6 0.0 0.00 0.00 0.00 100 1009.7
20260505084527 12 188 0.0 0.0 0.00 0.00 0.00 100 1009.6
20260505083006 12 234 1.6 0.0 0.00 0.00 0.00 100 1009.6
20260505081507 12 223 0.0 0.0 0.00 0.00 0.00 100 1009.6
20260505080111 12 197 0.0 0.0 0.00 0.00 0.00 100 1009.6
20260505074553 12 216 0.0 0.0 0.00 0.00 0.00 100 1009.6
20260505073048 12 216 0.0 0.0 0.00 0.00 0.00 100 1009.4
20260505071544 12 202 0.0 0.0 0.00 0.00 0.00 100 1009.4
20260505070044 12 175 0.0 0.0 0.00 0.00 0.00 3 1009.3
20260505064536 12 228 0.0 0.0 0.00 0.00 0.00 9 1009.4
20260505063034 13 217 0.0 0.0 0.00 0.00 0.00 17 1009.3
20260505061531 13 211 0.0 0.0 0.00 0.00 0.00 23 1009.4
20260505060034 13 199 0.0 0.0 0.00 0.00 0.00 28 1009.6
20260505054525 13 198 0.0 0.0 0.00 0.00 0.00 35 1009.6
20260505053022 14 191 0.0 0.0 0.00 0.00 0.00 41 1009.5
20260505051521 14 178 0.0 0.0 0.00 0.00 0.00 43 1009.4
20260505041512 14 157 0.0 0.0 0.00 0.00 0.00 56 1010.0
20260505040009 14 186 1.6 0.0 0.00 0.00 0.00 58 1010.0
20260505034509 14 169 0.0 0.0 0.00 0.00 0.00 61 1010.1
20260505033009 14 132 0.0 0.0 0.00 0.00 0.00 62 1010.0
20260505031512 14 157 0.0 0.0 0.00 0.00 0.00 63 1010.2
20260505030008 14 148 0.0 0.0 0.00 0.00 0.00 63 1010.1
20260505024510 14 163 0.0 0.0 0.00 0.00 0.00 64 1010.2
20260505023007 15 182 0.0 0.0 0.00 0.00 0.00 64 1010.3
20260505021507 15 191 0.0 0.0 0.00 0.00 0.00 64 1010.4
20260505020009 15 153 1.6 0.0 0.00 0.00 0.00 64 1010.4
20260505014506 15 119 1.6 0.0 0.00 0.00 0.00 64 1010.3
20260505013005 15 153 1.6 0.0 0.00 0.00 0.00 64 1010.3
20260505011505 15 204 0.0 0.0 0.00 0.00 0.00 65 1010.2
20260505010012 16 211 1.6 0.0 0.00 0.00 0.00 64 1010.1
20260505004506 16 175 1.6 0.0 0.00 0.00 0.00 63 1009.8
20260505003003 16 204 0.0 0.0 0.00 0.00 0.00 61 1009.7
20260505001503 17 169 1.6 0.0 0.00 0.00 0.00 58 1009.5
20260505000110 17 175 1.6 0.0 0.00 0.00 0.00 56 1009.2
20260504234600 18 156 1.6 0.0 0.00 0.00 0.00 53 1009.1
20260504233112 18 165 1.6 0.0 0.00 0.00 0.00 52 1009.0
20260504231600 18 173 3.2 0.0 0.00 0.00 0.00 50 1009.0
20260504230059 19 218 1.6 0.0 0.00 0.00 0.00 50 1008.8
20260504224558 20 178 3.2 0.0 0.00 0.00 0.00 48 1008.7
20260504223057 20 184 3.2 0.0 0.00 0.00 0.00 48 1008.5
20260504221558 20 128 3.2 0.0 0.00 0.00 0.00 49 1008.5
20260504220055 21 211 3.2 0.0 0.00 0.00 0.00 46 1008.5
20260504214605 21 166 3.2 0.0 0.00 0.00 0.00 46 1008.5
20260504213054 22 162 4.8 0.0 0.00 0.00 0.00 44 1008.6
20260504211553 22 194 3.2 0.0 0.00 0.00 0.00 45 1008.5
20260504210055 23 142 4.8 0.0 0.00 0.00 0.00 43 1008.5
20260504204554 24 178 3.2 0.0 0.00 0.00 0.00 40 1008.3
20260504203056 25 164 3.2 0.0 0.00 0.00 0.00 29 1008.3
20260504201550 26 248 1.6 0.0 0.00 0.00 0.00 31 1008.3
20260504200048 25 313 3.2 0.0 0.00 0.00 0.00 31 1008.5
20260504194553 26 319 3.2 0.0 0.00 0.00 0.00 28 1008.7
20260504193046 25 336 1.6 0.0 0.00 0.00 0.00 29 1008.8
20260504191551 25 202 1.6 0.0 0.00 0.00 0.00 31 1009.0
20260504190040 25 195 3.2 0.0 0.00 0.00 0.00 33 1009.4
20260504184539 25 248 3.2 0.0 0.00 0.00 0.00 31 1009.7
20260504183038 25 212 4.8 0.0 0.00 0.00 0.00 30 1009.8
20260504181536 25 224 1.6 0.0 0.00 0.00 0.00 32 1009.9
20260504180034 25 202 3.2 0.0 0.00 0.00 0.00 33 1010.1
20260504174531 25 259 1.6 0.0 0.00 0.00 0.00 30 1010.3
20260504173031 25 180 1.6 0.0 0.00 0.00 0.00 31 1010.5
20260504171542 25 254 1.6 0.0 0.00 0.00 0.00 31 1010.8